This demonstration page uses our WeatherBlox Daily Observations layout. Learn more.

40.92945, -100.16068

Hourly Observations for December 3, 2015

Temp ( °F °C ) Dew Point ( °F °C ) Humidity (%) Winds ( mph kmh ) Pressure ( in mb ) Visibility ( mi km ) Precip ( " mm )
12:15 am 00:15 Clear 23 -5 19 -7 86 86 W 6 9 30.36 1028 10 16.09344 0 0
12:35 am 00:35 Clear 23 -5 19 -7 86 86 Calm 30.36 1028 10 16.09344 0 0
12:55 am 00:55 Clear 23 -5 19 -7 86 86 WNW 3 6 30.36 1028 10 16.09344 0 0
1:15 am 01:15 Clear 23 -5 19 -7 86 86 NW 3 6 30.36 1028 10 16.09344 0 0
1:35 am 01:35 Clear 21 -6 19 -7 93 93 NW 3 6 30.36 1028 10 16.09344 0 0
1:55 am 01:55 Clear 21 -6 19 -7 93 93 WNW 3 6 30.36 1028 10 16.09344 0 0
2:15 am 02:15 Clear 19 -7 18 -8 93 93 W 6 9 30.39 1029 10 16.09344 0 0
2:35 am 02:35 Clear 19 -7 18 -8 93 93 W 7 11 30.39 1029 10 16.09344 0 0
2:55 am 02:55 Clear 21 -6 19 -7 93 93 W 5 7 30.36 1028 10 16.09344 0 0
3:15 am 03:15 Clear 21 -6 18 -8 86 86 W 3 6 30.36 1028 10 16.09344 0 0
3:35 am 03:35 Clear 21 -6 18 -8 86 86 Calm 30.36 1028 10 16.09344 0 0
3:55 am 03:55 Clear 21 -6 18 -8 86 86 W 3 6 30.36 1028 10 16.09344 0 0
4:15 am 04:15 Clear 19 -7 18 -8 93 93 WNW 3 6 30.39 1029 10 16.09344 0 0
4:35 am 04:35 Clear 19 -7 18 -8 93 93 W 5 7 30.39 1029 10 16.09344 0 0
4:55 am 04:55 Clear 19 -7 18 -8 93 93 WNW 3 6 30.39 1029 10 16.09344 0 0
5:15 am 05:15 Clear 19 -7 18 -8 93 93 W 5 7 30.39 1029 10 16.09344 0 0
5:35 am 05:35 Clear 19 -7 18 -8 93 93 Calm 30.42 1030 10 16.09344 0 0
5:55 am 05:55 Clear 19 -7 18 -8 93 93 W 3 6 30.42 1030 10 16.09344 0 0
6:15 am 06:15 Clear 19 -7 18 -8 93 93 W 3 6 30.42 1030 10 16.09344 0 0
6:35 am 06:35 Clear 19 -7 16 -9 86 86 W 5 7 30.42 1030 10 16.09344 0 0
6:55 am 06:55 Clear 19 -7 18 -8 93 93 W 5 7 30.42 1030 10 16.09344 0 0
7:15 am 07:15 Clear 19 -7 18 -8 93 93 Calm 30.42 1030 10 16.09344 0 0
7:35 am 07:35 Clear 21 -6 18 -8 86 86 W 5 7 30.39 1029 10 16.09344 0 0
7:55 am 07:55 Sunny 19 -7 18 -8 93 93 Calm 30.42 1030 10 16.09344 0 0
8:15 am 08:15 Sunny 19 -7 18 -8 93 93 NW 5 7 30.42 1030 10 16.09344 0 0
8:35 am 08:35 Sunny 23 -5 19 -7 86 86 Calm 30.39 1029 10 16.09344 0 0
8:55 am 08:55 Sunny 25 -4 23 -5 93 93 Calm 30.39 1029 10 16.09344 0 0
9:15 am 09:15 Sunny 27 -3 25 -4 93 93 Calm 30.42 1030 10 16.09344 0 0
9:35 am 09:35 Sunny 28 -2 25 -4 86 86 Calm 30.36 1028 10 16.09344 0 0
9:55 am 09:55 Sunny 30 -1 27 -3 86 86 W 6 9 30.39 1029 10 16.09344 0 0
10:15 am 10:15 Sunny 32 0 28 -2 87 87 WNW 5 7 30.36 1028 10 16.09344 0 0
10:35 am 10:35 Sunny 34 1 30 -1 87 87 Calm 30.36 1028 10 16.09344 0 0
10:55 am 10:55 Sunny 37 3 28 -2 70 70 WSW 5 7 30.33 1027 10 16.09344 0 0
11:15 am 11:15 Sunny 39 4 28 -2 65 65 W 6 9 30.33 1027 10 16.09344 0 0
11:35 am 11:35 Sunny 41 5 28 -2 61 61 WSW 3 6 30.33 1027 10 16.09344 0 0
11:55 am 11:55 Sunny 43 6 28 -2 57 57 W 6 9 30.3 1026 10 16.09344 0 0
12:15 pm 12:15 Sunny 45 7 28 -2 53 53 WSW 6 9 30.27 1025 10 16.09344 0 0
12:35 pm 12:35 Sunny 46 8 28 -2 50 50 SW 3 6 30.27 1025 10 16.09344 0 0
12:55 pm 12:55 Sunny 46 8 28 -2 50 50 SW 7 11 30.27 1025 10 16.09344 0 0
1:15 pm 13:15 Sunny 48 9 28 -2 46 46 SW 8 13 30.24 1024 10 16.09344 0 0
1:35 pm 13:35 Sunny 48 9 28 -2 46 46 WSW 3 6 30.24 1024 10 16.09344 0 0
1:55 pm 13:55 Sunny 50 10 27 -3 40 40 WSW 10 17 30.24 1024 10 16.09344 0 0
2:15 pm 14:15 Sunny 50 10 27 -3 40 40 W 12 19 30.24 1024 10 16.09344 0 0
2:35 pm 14:35 Sunny 50 10 28 -2 43 43 W 7 11 30.24 1024 10 16.09344 0 0
2:55 pm 14:55 Sunny 50 10 28 -2 43 43 W 5 7 30.24 1024 10 16.09344 0 0
3:15 pm 15:15 Sunny 50 10 28 -2 43 43 W 3 6 30.21 1023 10 16.09344 0.01 0.254
3:35 pm 15:35 Sunny 52 11 30 -1 44 44 WNW 5 7 30.24 1024 10 16.09344 0.01 0.254
3:55 pm 15:55 Sunny 50 10 28 -2 43 43 WNW 6 9 30.24 1024 10 16.09344 0.01 0.254
4:15 pm 16:15 Sunny 50 10 30 -1 47 47 NW 7 11 30.24 1024 10 16.09344 0 0
4:35 pm 16:35 Sunny 45 7 32 0 61 61 NW 6 9 30.27 1025 10 16.09344 0 0
4:55 pm 16:55 Sunny 41 5 30 -1 66 66 WNW 5 7 30.3 1026 10 16.09344 0 0
5:15 pm 17:15 Clear 39 4 30 -1 70 70 WNW 3 6 30.3 1026 10 16.09344 0 0
5:35 pm 17:35 Clear 37 3 30 -1 75 75 NW 3 6 30.3 1026 10 16.09344 0 0
5:55 pm 17:55 Clear 32 0 27 -3 80 80 NW 6 9 30.33 1027 10 16.09344 0 0
6:15 pm 18:15 Clear 34 1 28 -2 81 81 NNW 5 7 30.33 1027 10 16.09344 0 0
6:35 pm 18:35 Clear 32 0 27 -3 80 80 NNW 6 9 30.36 1028 10 16.09344 0 0
6:55 pm 18:55 Clear 30 -1 27 -3 86 86 NNW 6 9 30.39 1029 10 16.09344 0 0
7:15 pm 19:15 Clear 28 -2 25 -4 86 86 NW 3 6 30.39 1029 10 16.09344 0 0
7:35 pm 19:35 Clear 28 -2 25 -4 86 86 Calm 30.39 1029 10 16.09344 0 0
7:55 pm 19:55 Clear 27 -3 25 -4 93 93 Calm 30.42 1030 10 16.09344 0 0
8:15 pm 20:15 Clear 28 -2 27 -3 93 93 SW 3 6 30.39 1029 10 16.09344 0 0
8:35 pm 20:35 Clear 28 -2 25 -4 86 86 Calm 30.39 1029 10 16.09344 0 0
8:55 pm 20:55 Clear 30 -1 27 -3 86 86 Calm 30.39 1029 10 16.09344 0 0
9:15 pm 21:15 Clear 28 -2 25 -4 86 86 Calm 30.39 1029 10 16.09344 0 0
9:35 pm 21:35 Clear 28 -2 25 -4 86 86 Calm 30.39 1029 10 16.09344 0 0
9:55 pm 21:55 Clear 27 -3 25 -4 93 93 Calm 30.42 1030 10 16.09344 0 0
10:15 pm 22:15 Clear 27 -3 23 -5 86 86 Calm 30.42 1030 10 16.09344 0 0
10:35 pm 22:35 Clear 27 -3 25 -4 93 93 Calm 30.42 1030 10 16.09344 0 0
10:55 pm 22:55 Clear 27 -3 23 -5 86 86 Calm 30.42 1030 10 16.09344 0 0
11:15 pm 23:15 Clear 25 -4 23 -5 93 93 N 3 6 30.42 1030 10 16.09344 0 0
11:35 pm 23:35 Clear 25 -4 23 -5 93 93 Calm 30.42 1030 10 16.09344 0 0
11:55 pm 23:55 Clear 25 -4 23 -5 93 93 Calm 30.45 1031 10 16.09344 0 0

Powered by AerisWeather